{"data":{"norad_id":82180,"intl_designator":"","name":"UNKNOWN","alt_names":[],"object_type":"UNKNOWN","status":"UNKNOWN","operator":null,"country":null,"launch_date":null,"launch_site_code":null,"launch_vehicle":null,"mission":null,"orbit_class":"UNKNOWN","rcs_meters":null,"size_class":null,"mass_kg":null,"dimensions":null,"purposes":[],"wikipedia_slug":null,"has_3d_model":false,"image_url":null,"decayed_at":null,"tle_current":{"epoch":"2026-05-22T12:39:48.491712Z","epoch_age_seconds":284797,"freshness":"STALE","line1":"1 82180U          26142.52764458  .00007249  00000+0  95190-3 0  9993","line2":"2 82180  65.6514 191.6443 0282063 133.5047 228.9880 14.56803542625121","mean_motion":14.56803542,"eccentricity":0.0282063,"inclination_deg":65.6514,"raan_deg":191.6443,"arg_perigee_deg":133.5047,"mean_anomaly_deg":228.988,"bstar":0.0009519,"rev_number":62512,"period_min":98.846547148222,"perigee_km":503.76675758939,"apogee_km":903.26109873956,"semimajor_km":7081.6509281645,"source":"CELESTRAK","updated_at":"2026-05-25T13:38:11.183547Z"}}}